Location: Forest Hills
(36.0651°N, 86.8403°W)
Time: 23:55:23
(UTC+00:00)

ARIANE 6 FM1 Upper Stage - Pass Details

Date: 21 January 2026
Orbit: 522 x 609 km, 62.0° (Epoch: 10 February)

Event Time Altitude Azimuth Distance (km) Brightness Sun altitude
Rises 01:32:26 0° 240° (WSW) 2,717 7.1 -30.2°
Reaches altitude 10° 01:34:56 10° 253° (WSW) 1,811 6.1 -30.7°
Enters shadow 01:37:21 23° 286° (WNW) 1,167 4.8 -31.2°
